TimeCDT,TemperatureF,Dew PointF,Humidity,Sea Level PressureIn,VisibilityMPH,Wind Direction,Wind SpeedMPH,Gust SpeedMPH,PrecipitationIn,Events,Conditions,WindDirDegrees,DateUTC
12:53 AM,63.0,57.0,81,29.96,10.0,South,9.2,-,N/A,,Clear,170,2013-04-08 05:53:00
1:53 AM,62.1,57.0,84,29.96,10.0,South,9.2,-,N/A,,Clear,180,2013-04-08 06:53:00
2:53 AM,60.1,57.0,90,29.96,10.0,South,6.9,-,N/A,,Clear,170,2013-04-08 07:53:00
3:15 AM,60.8,57.2,88,29.97,10.0,South,8.1,-,N/A,,Scattered Clouds,180,2013-04-08 08:15:00
3:27 AM,60.8,57.2,88,29.97,10.0,South,10.4,-,N/A,,Mostly Cloudy,180,2013-04-08 08:27:00
3:53 AM,61.0,59.0,93,29.94,10.0,South,11.5,-,N/A,,Overcast,170,2013-04-08 08:53:00
4:53 AM,60.1,57.9,93,29.94,10.0,SSE,9.2,-,N/A,,Mostly Cloudy,160,2013-04-08 09:53:00
5:01 AM,60.8,57.2,88,29.96,9.0,SSE,8.1,-,N/A,,Scattered Clouds,160,2013-04-08 10:01:00
5:17 AM,60.8,57.2,88,29.96,6.0,SSE,9.2,-,N/A,,Mostly Cloudy,160,2013-04-08 10:17:00
5:53 AM,60.1,57.9,93,29.95,6.0,SSE,5.8,-,N/A,,Mostly Cloudy,160,2013-04-08 10:53:00
6:53 AM,60.1,57.9,93,29.96,8.0,SSE,6.9,-,N/A,,Overcast,150,2013-04-08 11:53:00
7:53 AM,62.1,59.0,90,29.98,9.0,SSE,8.1,-,N/A,,Overcast,150,2013-04-08 12:53:00
8:12 AM,62.6,59.0,88,30.00,10.0,SSE,8.1,-,N/A,,Overcast,160,2013-04-08 13:12:00
8:53 AM,64.9,60.1,84,29.99,10.0,SSE,8.1,-,N/A,,Overcast,160,2013-04-08 13:53:00
9:21 AM,66.2,59.0,78,30.01,10.0,South,10.4,-,N/A,,Mostly Cloudy,170,2013-04-08 14:21:00
9:53 AM,70.0,60.1,71,29.99,10.0,SSE,10.4,-,N/A,,Mostly Cloudy,150,2013-04-08 14:53:00
10:41 AM,71.6,57.2,60,30.03,10.0,SSW,8.1,-,N/A,,Mostly Cloudy,200,2013-04-08 15:41:00
10:53 AM,73.0,57.9,59,30.01,10.0,South,10.4,18.4,N/A,,Mostly Cloudy,180,2013-04-08 15:53:00
11:53 AM,73.9,57.9,57,30.01,10.0,South,8.1,-,N/A,,Mostly Cloudy,190,2013-04-08 16:53:00
12:53 PM,77.0,59.0,54,29.98,10.0,SSE,9.2,-,N/A,,Mostly Cloudy,160,2013-04-08 17:53:00
1:53 PM,78.1,57.9,50,29.96,10.0,SSE,16.1,20.7,N/A,,Mostly Cloudy,160,2013-04-08 18:53:00
2:53 PM,79.0,57.9,48,29.94,10.0,South,17.3,24.2,N/A,,Scattered Clouds,180,2013-04-08 19:53:00
3:53 PM,82.0,57.9,44,29.91,10.0,South,18.4,25.3,N/A,,Partly Cloudy,180,2013-04-08 20:53:00
4:53 PM,82.9,57.9,42,29.90,10.0,South,15.0,24.2,N/A,,Clear,180,2013-04-08 21:53:00
5:53 PM,80.1,57.0,45,29.89,10.0,South,19.6,25.3,N/A,,Clear,170,2013-04-08 22:53:00
6:53 PM,77.0,57.0,50,29.90,10.0,SSE,13.8,21.9,N/A,,Clear,160,2013-04-08 23:53:00
7:53 PM,75.0,57.9,55,29.92,10.0,SSE,13.8,-,N/A,,Clear,160,2013-04-09 00:53:00
8:53 PM,73.0,60.1,64,29.92,10.0,SSE,13.8,-,N/A,,Clear,150,2013-04-09 01:53:00
9:53 PM,72.0,61.0,68,29.92,10.0,SSE,12.7,24.2,N/A,,Clear,160,2013-04-09 02:53:00
10:53 PM,70.0,62.1,76,29.94,10.0,South,11.5,19.6,N/A,,Partly Cloudy,170,2013-04-09 03:53:00
11:16 PM,69.8,62.6,78,29.96,10.0,South,10.4,-,N/A,,Mostly Cloudy,170,2013-04-09 04:16:00
11:53 PM,71.1,63.0,75,29.94,10.0,SSE,12.7,-,N/A,,Overcast,160,2013-04-09 04:53:00